• En España
  • Lista de países
  • Para 7 días
  • Temperatura del agua
  • Mapa Satelital
  • El tiempo en el mapa
  • Informadores
  • user-avatar
    Iniciar sesión

    Tiempo cada hora Shkoder

    Hoy, 22 Octubre, Lunes

    Tiempo Temperatura Precipitaciones Viento Presión Humedad
    00:00 +11°C° 0.1 mm 4 mps 741 mmHg 75%
    01:00 +11°C° 0.1 mm 4 mps 741 mmHg 75%
    02:00 +11°C° 0 mm 4 mps 741 mmHg 76%
    03:00 +10°C° 0 mm 4 mps 741 mmHg 76%
    04:00 +10°C° 0 mm 4 mps 741 mmHg 77%
    05:00 +10°C° 0 mm 4 mps 741 mmHg 76%
    06:00 +11°C° 0 mm 4 mps 741 mmHg 75%
    07:00 +11°C° 0 mm 4 mps 741 mmHg 75%
    08:00 +13°C° 0 mm 4 mps 741 mmHg 69%
    09:00 +15°C° 0 mm 4 mps 741 mmHg 63%
    10:00 +16°C° 0 mm 5 mps 741 mmHg 58%
    11:00 +18°C° 0 mm 4 mps 740 mmHg 55%
    12:00 +19°C° 0 mm 4 mps 740 mmHg 53%
    13:00 +20°C° 0 mm 4 mps 739 mmHg 51%
    14:00 +19°C° 0 mm 4 mps 739 mmHg 54%
    15:00 +18°C° 0 mm 4 mps 739 mmHg 57%
    16:00 +17°C° 0 mm 4 mps 739 mmHg 61%
    17:00 +15°C° 0.3 mm 4 mps 740 mmHg 65%
    18:00 +16°C° 0.3 mm 3 mps 740 mmHg 70%
    19:00 +14°C° 0.3 mm 3 mps 740 mmHg 74%
    20:00 +13°C° 0.5 mm 3 mps 740 mmHg 76%
    21:00 +13°C° 0.5 mm 3 mps 741 mmHg 78%
    22:00 +13°C° 0.5 mm 3 mps 741 mmHg 80%
    23:00 +13°C° 0.3 mm 3 mps 741 mmHg 80%

    Mañana, 23 Octubre, Martes

    Tiempo Temperatura Precipitaciones Viento Presión Humedad
    00:00 +13°C° 0.3 mm 3 mps 741 mmHg 80%
    01:00 +13°C° 0.3 mm 4 mps 741 mmHg 81%
    02:00 +13°C° 0.2 mm 4 mps 741 mmHg 80%
    03:00 +13°C° 0.2 mm 4 mps 740 mmHg 80%
    04:00 +13°C° 0.2 mm 4 mps 740 mmHg 80%
    05:00 +13°C° 0 mm 4 mps 741 mmHg 80%
    06:00 +13°C° 0 mm 4 mps 741 mmHg 80%
    07:00 +13°C° 0 mm 4 mps 741 mmHg 79%
    08:00 +14°C° 0 mm 4 mps 741 mmHg 73%
    09:00 +15°C° 0 mm 4 mps 741 mmHg 67%
    10:00 +17°C° 0 mm 5 mps 741 mmHg 60%
    11:00 +19°C° 0 mm 4 mps 741 mmHg 57%
    12:00 +19°C° 0 mm 4 mps 741 mmHg 54%
    13:00 +20°C° 0 mm 4 mps 740 mmHg 51%
    14:00 +19°C° 0 mm 4 mps 740 mmHg 52%
    15:00 +19°C° 0 mm 4 mps 740 mmHg 54%
    16:00 +18°C° 0 mm 4 mps 740 mmHg 56%
    17:00 +17°C° 0 mm 3 mps 740 mmHg 61%
    18:00 +14°C° 0 mm 3 mps 740 mmHg 66%
    19:00 +13°C° 0 mm 3 mps 740 mmHg 71%
    20:00 +12°C° 0 mm 3 mps 741 mmHg 73%
    21:00 +12°C° 0 mm 3 mps 741 mmHg 75%
    22:00 +11°C° 0 mm 3 mps 741 mmHg 77%
    23:00 +11°C° 0 mm 3 mps 740 mmHg 78%

    Pasado mañana, 24 Octubre, Miércoles

    Tiempo Temperatura Precipitaciones Viento Presión Humedad
    00:00 +11°C° 0 mm 3 mps 740 mmHg 78%
    01:00 +11°C° 0 mm 3 mps 740 mmHg 79%
    02:00 +11°C° 0 mm 3 mps 739 mmHg 77%
    03:00 +10°C° 0 mm 2 mps 739 mmHg 75%
    04:00 +10°C° 0 mm 2 mps 738 mmHg 72%
    05:00 +12°C° 0 mm 2 mps 738 mmHg 67%
    06:00 +12°C° 0 mm 2 mps 738 mmHg 62%
    07:00 +13°C° 0 mm 2 mps 738 mmHg 57%
    08:00 +15°C° 0 mm 2 mps 738 mmHg 51%
    09:00 +18°C° 0 mm 2 mps 738 mmHg 45%
    10:00 +20°C° 0 mm 2 mps 737 mmHg 39%
    11:00 +21°C° 0 mm 2 mps 737 mmHg 39%
    12:00 +21°C° 0 mm 3 mps 736 mmHg 39%
    13:00 +22°C° 0 mm 3 mps 736 mmHg 40%
    14:00 +21°C° 0 mm 3 mps 736 mmHg 44%
    15:00 +20°C° 0 mm 3 mps 735 mmHg 48%
    16:00 +19°C° 0 mm 3 mps 735 mmHg 52%
    17:00 +18°C° 0 mm 3 mps 736 mmHg 56%
    18:00 +16°C° 0 mm 3 mps 736 mmHg 60%
    19:00 +14°C° 0 mm 3 mps 737 mmHg 65%
    20:00 +14°C° 0.1 mm 3 mps 737 mmHg 66%
    21:00 +13°C° 0.1 mm 3 mps 738 mmHg 67%
    22:00 +13°C° 0.1 mm 3 mps 739 mmHg 68%
    23:00 +11°C° 0 mm 4 mps 739 mmHg 68%

    25 Octubre, Jueves

    Tiempo Temperatura Precipitaciones Viento Presión Humedad
    00:00 +10°C° 0 mm 4 mps 739 mmHg 68%
    01:00 +8°C° 0 mm 4 mps 740 mmHg 68%
    02:00 +7°C° 0 mm 4 mps 740 mmHg 68%
    03:00 +6°C° 0 mm 4 mps 740 mmHg 68%
    04:00 +5°C° 0 mm 4 mps 741 mmHg 67%
    05:00 +5°C° 0 mm 3 mps 741 mmHg 65%
    06:00 +5°C° 0 mm 3 mps 742 mmHg 62%
    07:00 +5°C° 0 mm 3 mps 742 mmHg 59%
    08:00 +8°C° 0 mm 3 mps 743 mmHg 50%
    09:00 +10°C° 0 mm 3 mps 743 mmHg 40%
    10:00 +12°C° 0 mm 3 mps 743 mmHg 30%
    11:00 +13°C° 0 mm 3 mps 743 mmHg 29%
    12:00 +14°C° 0 mm 3 mps 742 mmHg 28%
    13:00 +16°C° 0 mm 3 mps 742 mmHg 27%
    14:00 +16°C° 0 mm 3 mps 742 mmHg 32%
    15:00 +14°C° 0 mm 3 mps 742 mmHg 36%
    16:00 +14°C° 0 mm 3 mps 742 mmHg 41%
    17:00 +12°C° 0 mm 3 mps 742 mmHg 45%
    18:00 +12°C° 0 mm 2 mps 742 mmHg 49%
    19:00 +10°C° 0 mm 2 mps 743 mmHg 54%
    20:00 +9°C° 0 mm 2 mps 743 mmHg 55%
    21:00 +9°C° 0 mm 2 mps 743 mmHg 57%
    22:00 +9°C° 0 mm 2 mps 743 mmHg 59%
    23:00 +9°C° 0 mm 2 mps 743 mmHg 60%

    26 Octubre, Viernes

    Tiempo Temperatura Precipitaciones Viento Presión Humedad
    00:00 +9°C° 0 mm 2 mps 743 mmHg 62%
    01:00 +9°C° 0 mm 2 mps 743 mmHg 63%
    02:00 +9°C° 0 mm 2 mps 743 mmHg 63%
    03:00 +9°C° 0 mm 2 mps 743 mmHg 62%
    04:00 +9°C° 0 mm 2 mps 742 mmHg 62%
    05:00 +10°C° 0 mm 2 mps 742 mmHg 60%
    06:00 +10°C° 0 mm 2 mps 742 mmHg 58%
    07:00 +10°C° 0 mm 2 mps 742 mmHg 56%
    08:00 +14°C° 0 mm 2 mps 742 mmHg 50%
    09:00 +16°C° 0 mm 2 mps 742 mmHg 44%
    10:00 +19°C° 0 mm 2 mps 742 mmHg 38%
    11:00 +19°C° 0 mm 2 mps 742 mmHg 39%
    12:00 +20°C° 0 mm 3 mps 741 mmHg 39%
    13:00 +20°C° 0 mm 3 mps 741 mmHg 40%
    14:00 +19°C° 0 mm 3 mps 741 mmHg 43%
    15:00 +18°C° 0 mm 2 mps 741 mmHg 46%
    16:00 +17°C° 0 mm 2 mps 741 mmHg 49%
    17:00 +16°C° 0 mm 2 mps 741 mmHg 52%
    18:00 +14°C° 0 mm 2 mps 741 mmHg 55%
    19:00 +13°C° 0 mm 2 mps 742 mmHg 57%
    20:00 +13°C° 0 mm 2 mps 742 mmHg 58%
    21:00 +13°C° 0 mm 2 mps 742 mmHg 59%
    22:00 +12°C° 0 mm 2 mps 742 mmHg 60%
    23:00 +12°C° 0 mm 2 mps 742 mmHg 63%

    27 Octubre, Sábado

    Tiempo Temperatura Precipitaciones Viento Presión Humedad
    00:00 +12°C° 0 mm 2 mps 742 mmHg 67%
    01:00 +11°C° 0 mm 3 mps 742 mmHg 70%
    02:00 +12°C° 0 mm 3 mps 741 mmHg 71%
    03:00 +12°C° 0 mm 3 mps 741 mmHg 72%
    04:00 +12°C° 0 mm 3 mps 741 mmHg 73%
    05:00 +13°C° 0.1 mm 3 mps 741 mmHg 73%
    06:00 +14°C° 0.1 mm 3 mps 741 mmHg 74%
    07:00 +14°C° 0.1 mm 3 mps 741 mmHg 74%
    08:00 +16°C° 0.2 mm 3 mps 740 mmHg 75%
    09:00 +15°C° 0.2 mm 4 mps 740 mmHg 77%
    10:00 +17°C° 0.2 mm 4 mps 740 mmHg 78%
    11:00 +17°C° 0.5 mm 4 mps 739 mmHg 80%
    12:00 +17°C° 0.5 mm 5 mps 739 mmHg 82%
    13:00 +17°C° 0.5 mm 5 mps 738 mmHg 84%
    14:00 +17°C° 0.8 mm 5 mps 738 mmHg 85%
    15:00 +17°C° 0.8 mm 6 mps 738 mmHg 86%
    16:00 +17°C° 0.8 mm 6 mps 737 mmHg 87%
    17:00 +17°C° 0.4 mm 6 mps 737 mmHg 88%
    18:00 +17°C° 0.4 mm 7 mps 738 mmHg 88%
    19:00 +16°C° 0.4 mm 7 mps 738 mmHg 89%
    20:00 +16°C° 0.5 mm 7 mps 738 mmHg 89%
    21:00 +16°C° 0.5 mm 7 mps 738 mmHg 89%
    22:00 +16°C° 0.5 mm 7 mps 738 mmHg 88%
    23:00 +16°C° 0.6 mm 7 mps 738 mmHg 87%

    28 Octubre, Domingo

    Tiempo Temperatura Precipitaciones Viento Presión Humedad
    00:00 +16°C° 0.6 mm 7 mps 738 mmHg 86%
    01:00 +16°C° 0.6 mm 7 mps 737 mmHg 85%
    02:00 +16°C° 0.7 mm 7 mps 737 mmHg 84%
    03:00 +16°C° 0.7 mm 7 mps 737 mmHg 83%
    04:00 +16°C° 0.7 mm 7 mps 737 mmHg 83%
    05:00 +16°C° 0.8 mm 7 mps 737 mmHg 82%
    06:00 +16°C° 0.8 mm 7 mps 737 mmHg 82%
    07:00 +16°C° 0.8 mm 7 mps 738 mmHg 82%
    08:00 +16°C° 0.5 mm 7 mps 738 mmHg 80%
    09:00 +17°C° 0.5 mm 7 mps 738 mmHg 78%
    10:00 +17°C° 0.5 mm 7 mps 738 mmHg 76%
    11:00 +18°C° 0.3 mm 7 mps 738 mmHg 73%
    12:00 +20°C° 0.3 mm 8 mps 737 mmHg 71%
    13:00 +20°C° 0.3 mm 8 mps 737 mmHg 68%
    14:00 +20°C° 1.1 mm 8 mps 737 mmHg 71%
    15:00 +18°C° 1.1 mm 7 mps 737 mmHg 74%
    16:00 +18°C° 1.1 mm 7 mps 737 mmHg 77%
    17:00 +17°C° 2.2 mm 6 mps 737 mmHg 80%
    18:00 +17°C° 2.2 mm 6 mps 737 mmHg 83%
    19:00 +16°C° 2.2 mm 6 mps 737 mmHg 87%
    20:00 +16°C° 1.3 mm 5 mps 737 mmHg 85%
    21:00 +16°C° 1.3 mm 5 mps 737 mmHg 84%
    22:00 +16°C° 1.3 mm 5 mps 737 mmHg 82%
    23:00 +16°C° 2.3 mm 5 mps 737 mmHg 83%
    Mostrar más